Weather History for Hot Springs, AR

Change the Weather History Date:

Sunday, February 26, 2012

  Actual Average Record
Temperature  
Mean Temperature 48 °F -  
Max Temperature 64 °F 60 °F 80 °F (1977)
Min Temperature 33 °F 35 °F 19 °F (1980)
Degree Days  
Heating Degree Days 16    
Moisture  
Dew Point 27 °F    
Average Humidity 47    
Maximum Humidity 79    
Minimum Humidity 20    
Precipitation  
Precipitation 0.00 in - - ()
Sea Level Pressure  
Sea Level Pressure 30.18 in    
Wind  
Wind Speed 6 mph (ESE)    
Max Wind Speed 15 mph    
Max Gust Speed 21 mph    
Visibility 10 miles    
Events      
Averages and records for this station are not official NWS values.
T = Trace of Precipitation, MM = Missing Value Source: NWS Daily Summary

Daily Weather History Graph

Daily Weather History Graph

Search for Another Location

Airport:

Trip Planner

Search our weather history database for the weather conditions in past years. The results will help you decide how hot, cold, wet, or windy it might be!

Date:

Astronomy

Feb. 26, 2012 Rise Set
Actual Time 6:45 AM CST 6:05 PM CST
Civil Twilight 6:20 AM CST 6:30 PM CST
Nautical Twilight 5:51 AM CST 6:59 PM CST
Astronomical Twilight 5:22 AM CST 7:29 PM CST
Moon 8:55 AM CST (2/26) 10:47 PM CST (2/26)
Length of Visible Light 12h 10m
Length of Day
11h 19m
Waxing Crescent, 21% of the Moon is Illuminated
Feb 26
Waxing Crescent
Feb 29
First Quarter
Mar 8
Full
Mar 14
Last Quarter
Mar 22
New

Hourly Weather History & Observations

Time (CST) Temp. Windchill Dew Point Humidity Pressure Visibility Wind Dir Wind Speed Gust Speed Precip Events Conditions
12:53 AM 39.9 °F 35.8 °F 28.9 °F 65% 30.21 in 10.0 mi ENE 5.8 mph - N/A   Clear
1:53 AM 37.0 °F 33.3 °F 28.0 °F 70% 30.23 in 10.0 mi East 4.6 mph - N/A   Clear
2:53 AM 37.9 °F 34.4 °F 28.0 °F 68% 30.22 in 10.0 mi East 4.6 mph - N/A   Clear
3:53 AM 34.0 °F 28.8 °F 27.0 °F 75% 30.22 in 10.0 mi ENE 5.8 mph - N/A   Clear
4:53 AM 34.0 °F 28.8 °F 28.0 °F 79% 30.23 in 10.0 mi ENE 5.8 mph - N/A   Clear
5:53 AM 33.1 °F 26.9 °F 27.0 °F 78% 30.22 in 10.0 mi ENE 6.9 mph - N/A   Clear
6:53 AM 33.8 °F 28.6 °F 26.6 °F 75% 30.23 in 10.0 mi ENE 5.8 mph - N/A   Clear
7:53 AM 41.0 °F 38.0 °F 28.9 °F 62% 30.24 in 10.0 mi East 4.6 mph - N/A   Clear
8:53 AM 46.9 °F - 28.0 °F 48% 30.24 in 10.0 mi SE 5.8 mph - N/A   Clear
9:53 AM 53.1 °F - 27.0 °F 37% 30.23 in 10.0 mi Calm Calm - N/A   Clear
10:53 AM 57.9 °F - 21.9 °F 25% 30.23 in 10.0 mi SSW 15.0 mph 20.7 mph N/A   Clear
11:53 AM 60.1 °F - 21.9 °F 23% 30.20 in 10.0 mi South 15.0 mph 20.7 mph N/A   Clear
12:53 PM 62.1 °F - 23.0 °F 22% 30.17 in 10.0 mi South 11.5 mph - N/A   Clear
1:53 PM 64.0 °F - 23.0 °F 21% 30.14 in 10.0 mi South 11.5 mph 20.7 mph N/A   Clear
2:53 PM 64.9 °F - 23.0 °F 20% 30.11 in 10.0 mi South 9.2 mph - N/A   Clear
3:53 PM 64.9 °F - 24.1 °F 21% 30.10 in 10.0 mi SE 9.2 mph 16.1 mph N/A   Clear
4:53 PM 64.9 °F - 25.0 °F 22% 30.10 in 10.0 mi South 8.1 mph - N/A   Clear
5:53 PM 62.1 °F - 25.0 °F 24% 30.09 in 10.0 mi SSE 5.8 mph - N/A   Clear
6:53 PM 60.1 °F - 26.1 °F 27% 30.12 in 10.0 mi Calm Calm - N/A   Clear
7:53 PM 50.0 °F - 30.9 °F 48% 30.14 in 10.0 mi ENE 3.5 mph - N/A   Clear
8:53 PM 51.1 °F - 28.9 °F 43% 30.16 in 10.0 mi Calm Calm - N/A   Clear
9:53 PM 46.9 °F - 30.9 °F 54% 30.17 in 10.0 mi East 4.6 mph - N/A   Clear
10:53 PM 44.1 °F 42.5 °F 33.1 °F 65% 30.18 in 10.0 mi ESE 3.5 mph - N/A   Clear
11:53 PM 46.0 °F - 32.0 °F 58% 30.21 in 10.0 mi Calm Calm - N/A   Clear